Nova Scotia Challenge - 71 KM

Station: 71 km - T Race

Distance: 44.583 Miles

Release: 04-Aug-2022 09:00

Weather Release:    Arrival:

Wind at Release:     Wind at Arrival:

Temp at Release: °    Temp at Arrival: °

Lofts: 48

Birds: 340

Clocked: 212

Good Luck to Everyone!
Drops Pos Breeder Pigeon Name Color Sex Ent Arrival Speed To Win Elg Pd250pt500pt750pt1000pt
1 Unstoppable Syndicate - CAN 2300-CU22-KING BBWF C 1 09:17:15.00 4548.797 00:00:00 Yes
2 O And L De Vries - ON 4679-CU22-OL BB H 1 09:25:41.00 3055.162 00:08:26 Yes
3 Gregoruk/Horner - ON 0573-CU22-TBAY CKWF H 1 10:02:07.00 1263.216 00:44:52 Yes
4 Pigeonempire.Com Guido Madrusan - ON 7710-CU22-CRPU BB H 1 10:02:08.00 1262.877 00:44:53 Yes
5 Linda & Rick - ON 40644-AU22-AA BB C 1 10:02:09.00 1262.538 00:44:54 Yes
6 Dogwood Lofts - BC 1208-CU22-MPB BK H 1 10:02:11.00 1261.861 00:44:56 Yes
7 Los Banditos - CA 2489-AU22-LB BB H 1 10:02:12.00 1261.523 00:44:57 Yes
8 Lin Family Loft - GA 86203-AU22-ARPU SLT H 1 10:02:13.00 1261.185 00:44:58 Yes
8 Marie Schleifer - ON 0297-CU22-PKC BL H 1 10:02:13.00 1261.185 00:44:58 Yes
10 Dave Naylor - BC 5001-CU22-MPB BBPD C 1 10:02:14.00 1260.848 00:44:59 Yes
11 Bill Wieland Loft - BC 5017-CU22-MPB BB C 1 10:02:15.00 1260.510 00:45:00 Yes
12 Vantroba/Eloranta/Vreys - ON 0703-CU22-CRPU BCWF H 1 10:02:18.00 1259.498 00:45:03 Yes
12 Irishsyndicatelofts - AZ 7311-AU22-ISD BB H 1 10:02:18.00 1259.498 00:45:03 Yes
12 Unstoppable Syndicate - CAN 22536-CU22-OSH BB C 2 10:02:18.00 1259.498 00:45:03 Yes
15 Los Banditos - CA 2493-AU22-LB BB C 2 10:02:20.00 1258.825 00:45:05 Yes
15 Los Banditos - CA 2492-AU22-LB RED C 3 10:02:20.00 1258.825 00:45:05 Missing
17 Hollywood Honey - CA 22050-CU22-NOVA BB H 1 10:02:21.00 1258.488 00:45:06 Yes
18 Cruz Family Loft - ON 0064-CU22-NG BB H 1 10:02:23.00 1257.816 00:45:08 Yes
18 Lonestar Loft - TX 0079-AU22-ARPU BBWF H 1 10:02:23.00 1257.816 00:45:08 Yes
20 Pigeonempire.Com Guido Madrusan - ON 7712-CU22-CRPU BB H 2 10:02:24.00 1257.480 00:45:09 Lost
20 3legged loft - BC 4012-CU22-NRRP BC C 1 10:02:24.00 1257.480 00:45:09 Yes
20 Pigeonempire.Com Guido Madrusan - ON 7701-CU22-CRPU BB C 3 10:02:24.00 1257.480 00:45:09 Yes
20 Hollywood Honey - CA 22054-CU22-NOVA BB H 2 10:02:24.00 1257.480 00:45:09 Yes
24 Dave Naylor - BC 5027-CU22-MPB BBPD H 2 10:02:25.00 1257.144 00:45:10 Yes
25 Dan & Greg Coury - AZ 2044-AU22-PGS BC H 1 10:02:26.00 1256.809 00:45:11 Yes
26 Furlano & Rotiroti - ON 11136-CU22-CRPU BB C 1 10:02:28.00 1256.138 00:45:13 Lost
27 Derick Schleifer - ON 0213-CU22-PKC CH H 1 10:02:29.00 1255.803 00:45:14 Yes
28 Strike Force Syndicate - CAN 2358-CU22-ASI RED H 1 10:02:30.00 1255.468 00:45:15 Yes
28 Bill Wieland Loft - BC 5005-CU22-MPB BBWF H 2 10:02:30.00 1255.468 00:45:15 Yes
30 Empire Farm - ON 4707-IF22-IF BLKW H 1 10:02:31.00 1255.133 00:45:16 Yes
30 Strike Force Syndicate - CAN 2360-CU22-ASI BC C 2 10:02:31.00 1255.133 00:45:16 Yes
32 Derick Schleifer - ON 0289-CU22-PKC BL H 2 10:02:32.00 1254.799 00:45:17 Yes
33 Da-Dong - WI 22915-AU22-DA BB H 1 10:02:33.00 1254.464 00:45:18 Yes
34 Cruz Family Loft - ON 7990-CU22-CRPU SLK C 2 10:02:34.00 1254.130 00:45:19 Yes
35 O And L De Vries - ON 4680-CU22-OL BB C 2 10:02:36.00 1253.463 00:45:21 Yes
35 Dave Naylor - BC 5029-CU22-MPB BB H 3 10:02:36.00 1253.463 00:45:21 Yes
37 Rick Fyfe - ON 19899-CU22-CRPU BC C 1 10:02:42.00 1251.463 00:45:27 Yes
38 Southshore Lofts - NS 22018-CU22-CRPU Marions Loonie BC H 1 10:02:43.00 1251.131 00:45:28 Yes
39 Sutton Wogan DaSilva Morris - ON 2247-CU22-KING BC H 1 10:02:45.00 1250.466 00:45:30 Yes
39 Derick Schleifer - ON 0112-CU22-PKC CH H 3 10:02:45.00 1250.466 00:45:30 Yes
41 Los Banditos - CA 2469-AU22-LB BB C 4 10:02:46.00 1250.134 00:45:31 Yes
41 Los Banditos - CA 2478-AU22-LB BB H 5 10:02:46.00 1250.134 00:45:31 Lost
43 Irma And Judy - ON 4747-IF22-EMPI BC H 1 10:02:48.00 1249.471 00:45:33 Yes
44 Cruz Family Loft - ON 0063-CU22-NG BB H 3 10:02:49.00 1249.139 00:45:34 Yes
45 Southshore Lofts - NS 22024-CU22-CRPU Hollywoods Girl BB H 2 10:02:51.00 1248.477 00:45:36 Yes
45 Derick Schleifer - ON 0288-CU22-PKC CH H 4 10:02:51.00 1248.477 00:45:36 Yes
47 Dogwood Lofts - BC 1207-CU22-MPB BB C 2 10:02:52.00 1248.146 00:45:37 Yes
48 Jim&mike - ON 4749-IF22-EMPI BC H 1 10:02:53.00 1247.815 00:45:38 Yes
49 Vantroba/Eloranta/Vreys - ON 0701-CU22-CRPU BB H 2 10:03:00.00 1245.504 00:45:45 Yes
49 Pigeonempire.Com Guido Madrusan - ON 7720-CU22-CRPU CHO C 4 10:03:00.00 1245.504 00:45:45 Yes
51 Ian Sibbald - ON 8933-CU22-CRPU DCWF H 1 10:03:02.00 1244.845 00:45:47 Yes
52 Chinese Curry - ON 2461-CU22-ASI BC H 1 10:03:03.00 1244.516 00:45:48 Lost
53 Dogwood Lofts - BC 1206-CU22-MPB BB H 3 10:03:07.00 1243.202 00:45:52 Yes
54 Classic Flight - ON 7904-CU22-CRPU BB H 1 10:03:14.00 1240.908 00:45:59 Yes
55 FDC Loft - ON 0016-CU22-FDC BB C 1 10:03:21.00 1238.623 00:46:06 Yes
56 Marie Schleifer - ON 0293-CU22-PKC CH H 2 10:03:26.00 1236.996 00:46:11 Yes
57 Chinese Curry - ON 2488-CU22-ASI RED C 2 10:03:30.00 1235.697 00:46:15 Yes
58 Jules Hou - BC 22529-CU22-MTNP DCWF H 1 10:03:38.00 1233.108 00:46:23 Missing
59 Dave Naylor - BC 5011-CU22-MPB BB C 4 10:03:41.00 1232.140 00:46:26 Yes
60 Calgary Boys - AB 17705-CU22-CRPU Comeback BB H 1 10:03:44.00 1231.173 00:46:29 Yes
61 Da-Dong - WI 22914-AU22-DA BB H 2 10:03:45.00 1230.851 00:46:30 Missing
62 O And L De Vries - ON 4710-CU22-OL BBWF C 3 10:03:48.00 1229.886 00:46:33 Yes
62 Cambie Village Loft - BC 4274-CU22-CRPU BB H 1 10:03:48.00 1229.886 00:46:33 Yes
64 O And L De Vries - ON 4709-CU22-OL BCWF C 4 10:03:50.00 1229.244 00:46:35 Lost
65 Tx Lin Loft - TX 20227-AU22-AA BB H 1 10:03:51.00 1228.923 00:46:36 Yes
65 Irishsyndicatelofts - AZ 7320-AU22-ISD BC H 2 10:03:51.00 1228.923 00:46:36 Missing
67 Irma And Judy - ON 4752-IF22-EMPI BB H 2 10:03:52.00 1228.603 00:46:37 Yes
67 Gregoruk/Horner - ON 0593-CU22-TBAY BB C 2 10:03:52.00 1228.603 00:46:37 Yes
69 Ian Sibbald - ON 8880-CU22-CRPU BB C 2 10:03:53.00 1228.282 00:46:38 Yes
70 FDC Loft - ON 0648-CU22-YRIM BB H 2 10:03:54.00 1227.962 00:46:39 Yes
71 Fernando Dias - ON 0637-CU22-CRPU BC H 1 10:03:56.00 1227.321 00:46:41 Yes
72 Da-Dong - WI 1639-AU22-RAC BB H 3 10:03:57.00 1227.002 00:46:42 Yes
73 Classic Flight - ON 7911-CU22-CRPU BB H 2 10:03:59.00 1226.362 00:46:44 Yes
74 Franco Classic Loft - CA 10062-AU22-JEDD BB C 1 10:04:00.00 1226.043 00:46:45 Yes
75 3legged loft - BC 4007-CU22-NRRP DC C 2 10:04:01.00 1225.724 00:46:46 Yes
75 Rick Fyfe - ON 18591-CU22-CRPU BB H 2 10:04:01.00 1225.724 00:46:46 Yes
77 Southshore Lofts - NS 22019-CU22-CRPU Gladiator Express BC C 3 10:04:04.00 1224.767 00:46:49 Yes
77 Hollywood Honey - CA 22049-CU22-NOVA BB H 3 10:04:04.00 1224.767 00:46:49 Yes
79 Furlano & Rotiroti - ON 11140-CU22-CRPU BC H 2 10:04:06.00 1224.130 00:46:51 Yes
80 Vantroba/Eloranta/Vreys - ON 0734-CU22-CRPU BBSP H 3 10:04:07.00 1223.812 00:46:52 Yes
81 Family Loft - IN 11231-CU22-CRPU BC H 1 10:04:11.00 1222.541 00:46:56 Yes
81 Rick Fyfe - ON 19895-CU22-CRPU BBWF H 3 10:04:11.00 1222.541 00:46:56 Yes
83 Blum Loft - PE 22408-CU22-NOVA DCWF H 1 10:04:13.00 1221.906 00:46:58 Yes
84 Vaccaro & Nelson - ON 1036-CU22-VHL BBWF H 1 10:04:14.00 1221.589 00:46:59 Missing
85 Unstoppable Syndicate - CAN 2246-CU22-KING BC C 3 10:04:17.00 1220.639 00:47:02 Missing
86 Franco Classic Loft - CA 10059-AU22-JEDD BB H 2 10:04:20.00 1219.690 00:47:05 Yes
86 Ivan Dave Syndicate - NS 5003-CU22-MP BB H 1 10:04:20.00 1219.690 00:47:05 Lost
86 Cambie Village Loft - BC 4254-CU22-CRPU BB C 2 10:04:20.00 1219.690 00:47:05 Yes
89 O And L De Vries - ON 4660-CU22-OL BB C 5 10:04:23.00 1218.743 00:47:08 Yes
90 Blum Loft - PE 22414-CU22-NOVA RCH H 2 10:04:25.00 1218.113 00:47:10 Missing
91 FDC Loft - ON 0065-CU22-FDC BLK H 3 10:04:27.00 1217.483 00:47:12 Yes
92 Linda & Rick - ON 19902-CU22-CRPU RED H 2 10:04:28.00 1217.168 00:47:13 Yes
93 Vantroba/Eloranta/Vreys - ON 0707-CU22-CRPU BBWF H 4 10:04:35.00 1214.969 00:47:20 Lost
94 Cantoloft - ON 9811-CU22-CRPU BB H 1 10:04:36.00 1214.656 00:47:21 Yes
95 Dan & Greg Coury - AZ 2045-AU22-PGS BC H 2 10:04:46.00 1211.530 00:47:31 Yes
96 Sutton Wogan DaSilva Morris - ON 2269-CU22-KING BB H 2 10:04:57.00 1208.110 00:47:42 Yes
97 Jim&mike - ON 4743-IF22-EMPI BB H 2 10:05:22.00 1200.409 00:48:07 Yes
98 Da-Dong - WI 1650-AU22-RAC WF H 4 10:05:25.00 1199.492 00:48:10 Yes
99 Prevalent Lofts - BC 0205-CU22-PLB BB H 1 10:05:27.00 1198.881 00:48:12 Yes
100 Hollywood Honey - CA 22046-CU22-NOVA BB H 4 10:05:28.00 1198.576 00:48:13 Yes

There are 212 bird records

Note: These Race Results are unofficial and subject to change until verified by the Race Committee and declared final.

 


windy
Click for Forecast for B3Z 1A7 from weatherUSA